Location: Bambrugge
(50.9212°N, 3.9299°E)
Time: 01:59:45
(UTC+00:00)

SL-16 R/B - Pass Details

Date: 23 May 2024
Orbit: 842 x 845 km, 71.0° (Epoch: 16 June)

Event Time Altitude Azimuth Distance (km) Brightness Sun altitude
Rises 01:34:23 0° 328° (NNW) 3,417 5.8 -14.2°
Reaches altitude 10° 01:36:51 10° 326° (NW) 2,478 5.0 -14.0°
Maximum altitude 01:42:29 66° 246° (WSW) 923 2.2 -13.6°
Drops below altitude 10° 01:48:05 10° 165° (SSE) 2,461 4.2 -13.2°
Enters shadow 01:49:01 - 164° (SSE) 2,814 4.5 -13.1°
